User: anonymous   Login
Location: Unspecified
(0.0000°N, 0.0000°E)
Time: 07:10:06
(UTC+00:00)
Language:

USA 97 - Orbit

View from above orbital plane
View from above orbital plane
View from above satellite
View from above satellite

Ground track
Ground track

The orbit data is extracted from the following two-line orbital elements,

1 22915U 93074A   18161.73413238 0.00000000  00000-0  00000-0 0    03
2 22915  11.0524  35.3054 0008389 282.0605  77.8575  0.98524898    07
Epoch (UTC): 10 June 2018 17:37:09
Eccentricity: 0.0008389
inclination: 11.0524°
perigee height: 36247 km
apogee height: 36319 km
right ascension of ascending node: 35.3054°
argument of perigee: 282.0605°
revolutions per day: 0.98524898
mean anomaly at epoch: 77.8575°
orbit number at epoch: 0

The dashed part of the orbit path shows where the satellite is in the earth's shadow,  

DLR